Lockhart, AL

3:49 PM CDT on July 25, 2016 (GMT -0500)
Florala

Weather History for K0J4 - January, 2013

Change the Weather History Date:

Thursday, January 24, 2013

  Actual Average (KCEW) Record (KCEW)
Temperature  
Mean Temperature 60 °F -  
Max Temperature 71 °F 62 °F 79 °F (1949)
Min Temperature 48 °F 38 °F 16 °F (2003)
Degree Days  
Heating Degree Days 6    
Growing Degree Days 10 (Base 50)    
Moisture  
Dew Point 50 °F    
Average Humidity 73    
Maximum Humidity 93    
Minimum Humidity 45    
Precipitation  
Precipitation 0.00 in - - ()
Sea Level Pressure  
Sea Level Pressure 30.29 in    
Wind  
Wind Speed 2 mph (WSW)    
Max Wind Speed 9 mph    
Max Gust Speed -    
Visibility 10 miles    
Events      
Averages and records for this station are not official NWS values.
T = Trace of Precipitation, MM = Missing Value Source: NWS Daily Summary

Daily Weather History Graph

Daily Weather History Graph

Search for Another Location

Airport or City:

Trip Planner

Search our weather history database for the weather conditions in past years. The results will help you decide how hot, cold, wet, or windy it might be!

Date:

Astronomy

Jan. 24, 2013 Rise Set
Actual Time 6:41 AM CST 5:13 PM CST
Civil Twilight 6:15 AM CST 5:39 PM CST
Nautical Twilight 5:46 AM CST 6:08 PM CST
Astronomical Twilight 5:17 AM CST 6:37 PM CST
Moon 3:17 PM CST (1/24) 4:36 AM CST (1/24)
Length of Visible Light 11h 24m
Length of Day
10h 32m
Waxing Gibbous, 94% of the Moon is Illuminated
Jan 24
Waxing Gibbous
Jan 26
Full
Feb 3
Last Quarter
Feb 10
New
Feb 17
First Quarter

Hourly Weather History & Observations

Time (CST) Temp. Dew Point Humidity Pressure Visibility Wind Dir Wind Speed Gust Speed Precip Events Conditions
12:58 AM 48.0 °F 45.0 °F 89% 30.30 in 8.0 mi SSW 3.5 mph - N/A   Scattered Clouds
1:58 AM 50.0 °F 48.0 °F 93% 30.30 in 9.0 mi Calm Calm - N/A   Clear
2:58 AM 51.1 °F 46.9 °F 86% 30.29 in 10.0 mi SW 3.5 mph - N/A   Clear
3:58 AM 52.0 °F 46.9 °F 83% 30.29 in 10.0 mi Variable 3.5 mph - N/A   Clear
4:58 AM 51.1 °F 46.9 °F 86% 30.30 in 10.0 mi Calm Calm - N/A   Clear
5:58 AM 50.0 °F 46.0 °F 86% 30.31 in 10.0 mi Calm Calm - N/A   Clear
6:58 AM 51.1 °F 46.0 °F 83% 30.31 in 10.0 mi Calm Calm - N/A   Clear
7:58 AM 55.0 °F 48.0 °F 77% 30.32 in 10.0 mi Calm Calm - N/A   Clear
8:58 AM 60.1 °F 51.1 °F 72% 30.33 in 10.0 mi Variable 3.5 mph - N/A   Clear
9:58 AM 64.9 °F 52.0 °F 63% 30.33 in 10.0 mi Variable 5.8 mph - N/A   Clear
10:58 AM 66.9 °F 52.0 °F 59% 30.32 in 10.0 mi Variable 3.5 mph - N/A   Partly Cloudy
11:26 AM 69.8 °F 53.6 °F 56% 30.32 in 10.0 mi North 9.2 mph - N/A   Mostly Cloudy
11:35 AM 66.2 °F 53.6 °F 64% 30.32 in 10.0 mi Calm Calm - N/A   Mostly Cloudy
11:58 AM 69.1 °F 53.1 °F 57% 30.30 in 10.0 mi Variable 6.9 mph - N/A   Overcast
12:58 PM 69.1 °F 51.1 °F 53% 30.27 in 10.0 mi Variable 4.6 mph - N/A   Partly Cloudy
1:58 PM 69.1 °F 52.0 °F 54% 30.26 in 10.0 mi NNW 4.6 mph - N/A   Partly Cloudy
2:58 PM 71.1 °F 50.0 °F 47% 30.25 in 10.0 mi Variable 4.6 mph - N/A   Partly Cloudy
3:58 PM 71.1 °F 48.9 °F 45% 30.24 in 10.0 mi Calm Calm - N/A   Clear
4:58 PM 66.0 °F 50.0 °F 56% 30.25 in 10.0 mi Calm Calm - N/A   Clear
5:58 PM 59.0 °F 51.1 °F 75% 30.26 in 10.0 mi Calm Calm - N/A   Partly Cloudy
6:58 PM 57.9 °F 51.1 °F 78% 30.27 in 10.0 mi Calm Calm - N/A   Clear
7:58 PM 52.0 °F 48.0 °F 86% 30.29 in 10.0 mi SSW 8.1 mph - N/A   Mostly Cloudy
8:58 PM 55.9 °F 51.1 °F 84% 30.30 in 9.0 mi Calm Calm - N/A   Overcast
9:58 PM 57.0 °F 51.1 °F 81% 30.30 in 10.0 mi Calm Calm - N/A   Overcast
10:58 PM 54.0 °F 50.0 °F 86% 30.29 in 9.0 mi Calm Calm - N/A   Clear
11:58 PM 50.0 °F 48.0 °F 93% 30.29 in 6.0 mi Calm Calm - N/A   Clear